Location: Bosdarros
(43.2167°N, 0.3667°W)
Time: 03:37:51
(UTC+00:00)

CZ-4 R/B - Pass Details

Date: 22 April 2021
Orbit: 531 x 598 km, 97.7° (Epoch: 15 May)

Event Time Altitude Azimuth Distance (km) Brightness Sun altitude
Rises 19:47:18 0° 207° (SSW) 2,830 5.0 -10.0°
Reaches altitude 10° 19:50:12 10° 229° (SW) 1,933 4.4 -10.5°
Maximum altitude 19:52:49 16° 268° (W) 1,575 4.6 -10.9°
Drops below altitude 10° 19:55:27 10° 307° (NW) 1,934 5.6 -11.3°
Sets 19:58:22 0° 329° (NNW) 2,832 6.1 -11.7°
